SCOUT X-4 R/B, 907

Orbit data source: Space-Track

SCOUT X-4 R/B, 907 is space debris in LEO originally from a launch on Sat, 10 Oct 1964 UTC launched from the Air Force Western Test Range (AFWTR). Debris objects in space refer to the collection of defunct objects orbiting the Earth. Examples of debris include non-operational satellites, rocket bodies, and fragments generated from explosions, collisions, or faulty payload assembly.

Loading next visibility...
Identifier
907, 1964-064B
Orbit
LEO
Last TLE update
13 hours ago
Origin
Manufacturer
ABL
Mission
Spacecraft
Bus & Motor
ALTAIR, Unknown motor
Mass
33 kg wet, 33 kg dry
Launch date (UTC)
1964-10-10 (61 years ago)
Launch vehicle
Unknown
Launch site
Air Force Western Test Range (AFWTR)
Object type
Payload
Rocket body
Debris
Shape & HBR
Cyl, 1.5 m
Radar Cross Section
0.687 m², Medium (>0.1 m² and < 1m²)

Expand to show TLE details & history

TLE from 13 hours ago
0 SCOUT X-4 R/B
1 00907U 64064B   25128.68704847  .00000152  00000-0  13234-3 0  9992
2 00907  79.6916 250.3665 0120390 257.7153 101.0495 13.80826392 46819
Epoch: 2025-05-08T16:29Z
Definitive object data (Epoch: 2025-05-08T16:29:20.987Z)
Latitude
-0.0001°
Longitude
136.27506°
Altitude
981.721 km
Speed
7.352 km/s
True Right ascension
16h 41m 27s
True Declination
0° 00' 00"
Sunlit
Object was in full shadow at TLE epoch
Visualization TLE readout
Latitude
66.27382°
Longitude
160.01886°
Altitude
1,059.813 km
Speed
7.284 km/s
Apparent Right ascension
22h 49m 42s
Apparent Declination
27° 51' 56"
Sunlit
Object is in daylight
Visualization observer readout
Local Sidereal Time
13:08:27
Azimuth
31.377° NE
Elevation
-14.93°
Doppler factor
1
Orbital elements
Apogee altitude
1,046.572 km
Perigee altitude
869.927 km
Semi-major axis
7,336.387 km
Eccentricity
0.012039
Inclination
79.6916°
RAAN
250.3665°
Arg. of periapsis
257.7153°
True anomaly
102.39947°
Mean anomaly
101.0495°
Eccentric anomaly
101.72489°
Mean motion
3.45398 °/min
BSTAR
0.00013234
Orbital period
104.23 mins
Loading maneuver chart data...
Loading SW <> Apogee altitude chart data...
Loading historical data...
Loading historical data...
Loading historical data...
Loading historical data...
Loading historical data...
Loading historical data...
Loading historical data...
Other satellites on launch #64 in the year 1964 (1964-10-10 UTC)

SCOUT X-4 R/B Visibility forecast

Observer location: undefined°, undefined°

Span
Click to sort rows by Start time (UTC) header in descending order
Start Az.
Max El. time (UTC)
Max El. Az.
Max El.
End time (UTC)
End Az.
11 mins2025-05-09 08:14:51.322Z157.601° S2025-05-09 08:19:51.322Z97.194° ESE33.438°2025-05-09 08:25:51.322Z26.5° NE
9 mins2025-05-09 10:01:51.322Z241.547° WSW2025-05-09 10:05:51.322Z294.918° NW27.697°2025-05-09 10:10:51.322Z349.659° N
11 mins2025-05-09 19:09:51.322Z2.884° NNE2025-05-09 19:14:51.322Z67.579° E36.745°2025-05-09 19:20:51.322Z146.756° SSE
8 mins2025-05-09 20:56:51.322Z311.477° NW2025-05-09 20:59:51.322Z275.807° WNW23.007°2025-05-09 21:04:51.322Z220.381° SW
|